{"data":{"norad_id":57976,"intl_designator":"2023-151N","name":"STARLINK-30512","alt_names":[],"object_type":"PAYLOAD","status":"ACTIVE","operator":null,"country":"US","launch_date":"2023-09-30","launch_site_code":"AFETR","launch_vehicle":null,"mission":null,"orbit_class":"UNKNOWN","rcs_meters":null,"size_class":null,"mass_kg":null,"dimensions":null,"purposes":["comms"],"wikipedia_slug":null,"has_3d_model":false,"image_url":null,"decayed_at":null,"tle_current":{"epoch":"2026-05-25T00:48:46.133856Z","epoch_age_seconds":72088,"freshness":"FRESH","line1":"1 57976U 23151N   26145.03386729  .00001394  00000+0  60158-4 0  9992","line2":"2 57976  43.0029 264.6706 0001250 281.2792  78.7919 15.27587666147448","mean_motion":15.27587666,"eccentricity":0.000125,"inclination_deg":43.0029,"raan_deg":264.6706,"arg_perigee_deg":281.2792,"mean_anomaly_deg":78.7919,"bstar":6.0158e-5,"rev_number":14744,"period_min":94.266275648235,"perigee_km":482.16849598115,"apogee_km":483.88378676649,"semimajor_km":6861.1631413738,"source":"CELESTRAK","updated_at":"2026-05-25T13:38:18.487199Z"}}}